| time (UTC) | temp C | wind direction | speed KPH | gust KPH | rain 1hr cm | rain 24hr cm | rain mn cm | humidity % | barometer mb |
| 20260504204510 | 26 | 9 | 11.3 | 33.8 | 0.00 | 0.00 | 0.00 | 30 | 1001.5 |
| 20260504203011 | 25 | 21 | 16.1 | 27.4 | 0.00 | 0.00 | 0.00 | 30 | 1001.6 |
| 20260504201511 | 26 | 18 | 19.3 | 35.4 | 0.00 | 0.00 | 0.00 | 30 | 1001.6 |
| 20260504200009 | 27 | 13 | 14.5 | 30.6 | 0.00 | 0.00 | 0.00 | 30 | 1001.6 |
| 20260504194507 | 27 | 5 | 22.5 | 38.6 | 0.00 | 0.00 | 0.00 | 27 | 1001.5 |
| 20260504193007 | 27 | 360 | 17.7 | 41.8 | 0.00 | 0.00 | 0.00 | 27 | 1001.3 |
| 20260504191506 | 27 | 340 | 27.4 | 40.2 | 0.00 | 0.00 | 0.00 | 28 | 1001.2 |
| 20260504190005 | 27 | 37 | 12.9 | 33.8 | 0.00 | 0.00 | 0.00 | 27 | 1001.1 |
| 20260504184503 | 27 | 343 | 24.1 | 35.4 | 0.00 | 0.00 | 0.00 | 26 | 1001.1 |
| 20260504183002 | 27 | 325 | 19.3 | 41.8 | 0.00 | 0.00 | 0.00 | 23 | 1001.1 |
| 20260504181602 | 27 | 333 | 17.7 | 37.0 | 0.00 | 0.00 | 0.00 | 26 | 1001.0 |
| 20260504180103 | 27 | 324 | 14.5 | 38.6 | 0.00 | 0.00 | 0.00 | 22 | 1001.1 |
| 20260504174555 | 27 | 279 | 16.1 | 32.2 | 0.00 | 0.00 | 0.00 | 23 | 1001.1 |
| 20260504173053 | 27 | 304 | 19.3 | 27.4 | 0.00 | 0.00 | 0.00 | 23 | 1001.3 |
| 20260504171558 | 26 | 308 | 20.9 | 30.6 | 0.00 | 0.00 | 0.00 | 24 | 1001.5 |
| 20260504081508 | 11 | 106 | 1.6 | 6.4 | 0.00 | 0.00 | 0.00 | 61 | 1002.8 |
| 20260504044532 | 13 | 123 | 0.0 | 1.6 | 0.00 | 0.00 | 0.00 | 55 | 1006.0 |
| 20260504043033 | 13 | 141 | 0.0 | 4.8 | 0.00 | 0.00 | 0.00 | 53 | 1006.0 |
| 20260504041529 | 13 | 153 | 0.0 | 4.8 | 0.00 | 0.00 | 0.00 | 54 | 1006.2 |
| 20260504040039 | 13 | 146 | 0.0 | 3.2 | 0.00 | 0.00 | 0.00 | 52 | 1006.6 |
| 20260504034525 | 14 | 146 | 0.0 | 3.2 | 0.00 | 0.00 | 0.00 | 51 | 1006.7 |
| 20260504033024 | 15 | 146 | 1.6 | 3.2 | 0.00 | 0.00 | 0.00 | 46 | 1006.9 |
| 20260504031524 | 15 | 146 | 1.6 | 4.8 | 0.00 | 0.00 | 0.00 | 48 | 1006.9 |
| 20260504030024 | 15 | 92 | 0.0 | 6.4 | 0.00 | 0.00 | 0.00 | 45 | 1007.0 |
| 20260504024523 | 16 | 97 | 8.0 | 11.3 | 0.00 | 0.00 | 0.00 | 45 | 1006.7 |
| 20260504023020 | 16 | 82 | 4.8 | 6.4 | 0.00 | 0.00 | 0.00 | 46 | 1006.9 |
| 20260504021520 | 16 | 86 | 3.2 | 6.4 | 0.00 | 0.00 | 0.00 | 46 | 1007.0 |
| 20260504020019 | 16 | 76 | 4.8 | 6.4 | 0.00 | 0.00 | 0.00 | 46 | 1007.2 |
| 20260504014524 | 17 | 96 | 3.2 | 6.4 | 0.00 | 0.00 | 0.00 | 45 | 1007.1 |
| 20260504013019 | 17 | 76 | 3.2 | 4.8 | 0.00 | 0.00 | 0.00 | 44 | 1007.1 |
| 20260504011520 | 18 | 79 | 4.8 | 6.4 | 0.00 | 0.00 | 0.00 | 44 | 1007.1 |
| 20260504010016 | 19 | 70 | 4.8 | 8.0 | 0.00 | 0.00 | 0.00 | 39 | 1007.2 |
| 20260504004514 | 20 | 58 | 4.8 | 8.0 | 0.00 | 0.00 | 0.00 | 39 | 1007.4 |
| 20260504003013 | 20 | 61 | 3.2 | 8.0 | 0.00 | 0.00 | 0.00 | 37 | 1007.5 |
| 20260504001511 | 21 | 62 | 4.8 | 9.7 | 0.00 | 0.00 | 0.00 | 38 | 1007.7 |
| 20260504000010 | 22 | 40 | 1.6 | 9.7 | 0.00 | 0.00 | 0.00 | 31 | 1007.9 |
| 20260503234509 | 22 | 65 | 3.2 | 17.7 | 0.00 | 0.00 | 0.00 | 33 | 1008.1 |
| 20260503233008 | 22 | 42 | 8.0 | 17.7 | 0.00 | 0.00 | 0.00 | 29 | 1008.2 |
| 20260503231508 | 23 | 163 | 4.8 | 14.5 | 0.00 | 0.00 | 0.00 | 29 | 1008.1 |
| 20260503230011 | 22 | 140 | 3.2 | 8.0 | 0.00 | 0.00 | 0.00 | 27 | 1008.3 |
| 20260503224508 | 23 | 268 | 1.6 | 8.0 | 0.00 | 0.00 | 0.00 | 29 | 1008.1 |
| 20260503223005 | 23 | 51 | 1.6 | 14.5 | 0.00 | 0.00 | 0.00 | 31 | 1008.5 |
| 20260503221503 | 23 | 13 | 4.8 | 12.9 | 0.00 | 0.00 | 0.00 | 27 | 1008.4 |
| 20260503220003 | 23 | 35 | 1.6 | 6.4 | 0.00 | 0.00 | 0.00 | 31 | 1008.6 |
| 20260503214506 | 23 | 321 | 4.8 | 17.7 | 0.00 | 0.00 | 0.00 | 27 | 1008.7 |
| 20260503213059 | 23 | 329 | 1.6 | 16.1 | 0.00 | 0.00 | 0.00 | 27 | 1008.8 |
| 20260503211558 | 23 | 331 | 9.7 | 17.7 | 0.00 | 0.00 | 0.00 | 29 | 1009.0 |
| 20260503210054 | 23 | 87 | 12.9 | 20.9 | 0.00 | 0.00 | 0.00 | 27 | 1009.2 |